Time,TemperatureF,DewpointF,PressureIn,WindDirection,WindDirectionDegrees,WindSpeedMPH,WindSpeedGustMPH,Humidity,HourlyPrecipIn,Conditions,Clouds,dailyrainin,SolarRadiationWatts/m^2,SoftwareType,DateUTC
2013-06-14 00:09:00,77.0,75.0,29.92,WSW,240,0.0,-999.0,93,-99.99,,,0.00,0,weatherlink.com 1.10,2013-06-14 04:09:00,
2013-06-14 00:24:00,77.2,75.0,29.93,WSW,240,0.0,-999.0,93,-99.99,,,0.00,0,weatherlink.com 1.10,2013-06-14 04:24:00,
2013-06-14 00:39:00,76.8,75.0,29.93,WSW,240,0.0,-999.0,93,-99.99,,,0.00,0,weatherlink.com 1.10,2013-06-14 04:39:00,
2013-06-14 00:54:00,76.5,75.0,29.93,WSW,240,0.0,-999.0,94,-99.99,,,0.00,0,weatherlink.com 1.10,2013-06-14 04:54:00,
2013-06-14 01:09:00,76.3,75.0,29.93,WSW,240,3.0,-999.0,95,-99.99,,,0.00,0,weatherlink.com 1.10,2013-06-14 05:09:00,
2013-06-14 01:24:00,76.1,75.0,29.93,WSW,240,0.0,-999.0,95,-99.99,,,0.00,0,weatherlink.com 1.10,2013-06-14 05:24:00,
2013-06-14 01:39:00,75.8,75.0,29.92,WSW,240,0.0,-999.0,96,-99.99,,,0.00,0,weatherlink.com 1.10,2013-06-14 05:39:00,
2013-06-14 01:54:00,76.0,75.0,29.92,WSW,240,0.0,-999.0,97,-99.99,,,0.00,0,weatherlink.com 1.10,2013-06-14 05:54:00,
2013-06-14 02:09:00,76.1,75.0,29.91,West,264,0.0,-999.0,97,-99.99,,,0.00,0,weatherlink.com 1.10,2013-06-14 06:09:00,
2013-06-14 02:24:00,76.5,76.0,29.91,SW,230,0.0,-999.0,97,-99.99,,,0.00,0,weatherlink.com 1.10,2013-06-14 06:24:00,
2013-06-14 02:39:00,76.5,76.0,29.91,WSW,243,0.0,-999.0,97,-99.99,,,0.00,0,weatherlink.com 1.10,2013-06-14 06:39:00,
2013-06-14 02:54:00,76.3,75.0,29.90,WSW,243,0.0,-999.0,97,-99.99,,,0.00,0,weatherlink.com 1.10,2013-06-14 06:54:00,
2013-06-14 03:09:00,76.0,75.0,29.89,SSW,209,0.0,-999.0,97,-99.99,,,0.00,0,weatherlink.com 1.10,2013-06-14 07:09:00,
2013-06-14 03:24:00,75.1,75.0,29.89,South,184,0.0,-999.0,98,-99.99,,,0.00,0,weatherlink.com 1.10,2013-06-14 07:24:00,
2013-06-14 03:39:00,74.9,75.0,29.88,South,184,0.0,-999.0,99,-99.99,,,0.00,0,weatherlink.com 1.10,2013-06-14 07:39:00,
2013-06-14 03:54:00,74.9,75.0,29.87,SSW,202,0.0,-999.0,100,-99.99,,,0.00,0,weatherlink.com 1.10,2013-06-14 07:54:00,
2013-06-14 04:09:00,74.7,75.0,29.88,SW,222,1.0,-999.0,100,-99.99,,,0.00,0,weatherlink.com 1.10,2013-06-14 08:09:00,
2013-06-14 04:24:00,74.6,75.0,29.89,SW,235,0.0,-999.0,100,-99.99,,,0.00,0,weatherlink.com 1.10,2013-06-14 08:24:00,
2013-06-14 04:39:00,74.6,75.0,29.89,SW,235,0.0,-999.0,100,-99.99,,,0.00,0,weatherlink.com 1.10,2013-06-14 08:39:00,
2013-06-14 04:54:00,74.6,75.0,29.89,SW,235,0.0,-999.0,100,-99.99,,,0.00,0,weatherlink.com 1.10,2013-06-14 08:54:00,
2013-06-14 05:09:00,74.6,75.0,29.89,SW,235,0.0,-999.0,100,-99.99,,,0.00,0,weatherlink.com 1.10,2013-06-14 09:09:00,
2013-06-14 05:24:00,74.7,75.0,29.89,SW,235,0.0,-999.0,100,-99.99,,,0.00,0,weatherlink.com 1.10,2013-06-14 09:24:00,
2013-06-14 05:39:00,75.1,75.0,29.88,WSW,238,0.0,-999.0,100,-99.99,,,0.00,0,weatherlink.com 1.10,2013-06-14 09:39:00,
2013-06-14 05:54:00,75.4,75.0,29.88,SSW,196,0.0,-999.0,100,-99.99,,,0.00,0,weatherlink.com 1.10,2013-06-14 09:54:00,
2013-06-14 06:09:00,75.6,76.0,29.88,WSW,252,0.0,-999.0,100,-99.99,,,0.00,0,weatherlink.com 1.10,2013-06-14 10:09:00,
2013-06-14 06:24:00,76.0,76.0,29.89,WSW,256,1.0,-999.0,99,-99.99,,,0.00,0,weatherlink.com 1.10,2013-06-14 10:24:00,
2013-06-14 06:39:00,75.8,75.0,29.89,WSW,252,2.0,-999.0,97,-99.99,,,0.00,11,weatherlink.com 1.10,2013-06-14 10:39:00,
2013-06-14 06:54:00,75.6,75.0,29.89,WSW,248,0.0,-999.0,97,-99.99,,,0.00,23,weatherlink.com 1.10,2013-06-14 10:54:00,
2013-06-14 07:09:00,76.0,75.0,29.89,WSW,239,4.0,-999.0,96,-99.99,,,0.00,49,weatherlink.com 1.10,2013-06-14 11:09:00,
2013-06-14 07:24:00,76.5,75.0,29.89,West,267,0.0,-999.0,95,-99.99,,,0.00,84,weatherlink.com 1.10,2013-06-14 11:24:00,
2013-06-14 07:39:00,77.2,75.0,29.89,West,262,1.0,-999.0,94,-99.99,,,0.00,139,weatherlink.com 1.10,2013-06-14 11:39:00,
2013-06-14 07:54:00,78.3,76.0,29.89,WSW,258,5.0,-999.0,92,-99.99,,,0.00,195,weatherlink.com 1.10,2013-06-14 11:54:00,
2013-06-14 08:09:00,78.8,76.0,29.89,WSW,254,0.0,-999.0,90,-99.99,,,0.00,179,weatherlink.com 1.10,2013-06-14 12:09:00,
2013-06-14 08:24:00,78.6,76.0,29.89,WSW,251,0.0,-999.0,90,-99.99,,,0.00,186,weatherlink.com 1.10,2013-06-14 12:24:00,
2013-06-14 08:39:00,79.6,76.0,29.89,NW,324,3.0,-999.0,88,-99.99,,,0.00,318,weatherlink.com 1.10,2013-06-14 12:39:00,
2013-06-14 08:54:00,80.3,76.0,29.90,WSW,258,0.0,-999.0,85,-99.99,,,0.00,320,weatherlink.com 1.10,2013-06-14 12:54:00,
2013-06-14 09:09:00,81.1,75.0,29.90,WSW,251,7.0,-999.0,82,-99.99,,,0.00,429,weatherlink.com 1.10,2013-06-14 13:09:00,
2013-06-14 09:24:00,81.8,76.0,29.91,WSW,240,0.0,-999.0,81,-99.99,,,0.00,501,weatherlink.com 1.10,2013-06-14 13:24:00,
2013-06-14 09:39:00,82.8,75.0,29.91,SW,222,6.0,-999.0,78,-99.99,,,0.00,582,weatherlink.com 1.10,2013-06-14 13:39:00,
2013-06-14 09:54:00,83.0,75.0,29.90,West,279,6.0,-999.0,76,-99.99,,,0.00,589,weatherlink.com 1.10,2013-06-14 13:54:00,
2013-06-14 10:09:00,83.8,74.0,29.90,WSW,238,5.0,-999.0,72,-99.99,,,0.00,629,weatherlink.com 1.10,2013-06-14 14:09:00,
2013-06-14 10:24:00,84.1,73.0,29.90,West,265,3.0,-999.0,70,-99.99,,,0.00,791,weatherlink.com 1.10,2013-06-14 14:24:00,
2013-06-14 10:39:00,84.7,73.0,29.89,West,260,6.0,-999.0,69,-99.99,,,0.00,710,weatherlink.com 1.10,2013-06-14 14:39:00,
2013-06-14 10:54:00,85.1,73.0,29.90,WSW,246,9.0,-999.0,68,-99.99,,,0.00,752,weatherlink.com 1.10,2013-06-14 14:54:00,
2013-06-14 11:09:00,85.5,73.0,29.91,West,260,6.0,-999.0,67,-99.99,,,0.00,844,weatherlink.com 1.10,2013-06-14 15:09:00,
2013-06-14 11:24:00,86.5,75.0,29.92,West,279,4.0,-999.0,68,-99.99,,,0.00,826,weatherlink.com 1.10,2013-06-14 15:24:00,
2013-06-14 11:39:00,86.1,75.0,29.92,West,278,5.0,-999.0,69,-99.99,,,0.00,1037,weatherlink.com 1.10,2013-06-14 15:39:00,
2013-06-14 11:54:00,86.5,73.0,29.92,WNW,303,9.0,-999.0,65,-99.99,,,0.00,921,weatherlink.com 1.10,2013-06-14 15:54:00,
2013-06-14 12:09:00,86.7,73.0,29.91,WSW,240,5.0,-999.0,63,-99.99,,,0.00,926,weatherlink.com 1.10,2013-06-14 16:09:00,
2013-06-14 12:24:00,87.8,73.0,29.91,West,281,7.0,-999.0,61,-99.99,,,0.00,1018,weatherlink.com 1.10,2013-06-14 16:24:00,
2013-06-14 12:39:00,88.0,73.0,29.91,WNW,298,7.0,-999.0,61,-99.99,,,0.00,944,weatherlink.com 1.10,2013-06-14 16:39:00,
2013-06-14 12:54:00,87.6,72.0,29.90,West,263,4.0,-999.0,61,-99.99,,,0.00,731,weatherlink.com 1.10,2013-06-14 16:54:00,
2013-06-14 13:09:00,88.4,72.0,29.90,NW,320,9.0,-999.0,59,-99.99,,,0.00,809,weatherlink.com 1.10,2013-06-14 17:09:00,
2013-06-14 13:24:00,88.0,73.0,29.89,West,275,6.0,-999.0,62,-99.99,,,0.00,921,weatherlink.com 1.10,2013-06-14 17:24:00,
2013-06-14 13:39:00,87.0,72.0,29.89,NW,304,6.0,-999.0,62,-99.99,,,0.00,1000,weatherlink.com 1.10,2013-06-14 17:39:00,
2013-06-14 13:54:00,87.6,73.0,29.89,NNW,329,1.0,-999.0,63,-99.99,,,0.00,946,weatherlink.com 1.10,2013-06-14 17:54:00,
2013-06-14 14:09:00,87.8,74.0,29.89,WNW,302,6.0,-999.0,63,-99.99,,,0.00,912,weatherlink.com 1.10,2013-06-14 18:09:00,
2013-06-14 14:24:00,88.4,74.0,29.87,NW,315,3.0,-999.0,62,-99.99,,,0.00,1013,weatherlink.com 1.10,2013-06-14 18:24:00,
2013-06-14 14:39:00,87.8,72.0,29.87,SW,229,5.0,-999.0,60,-99.99,,,0.00,1023,weatherlink.com 1.10,2013-06-14 18:39:00,
2013-06-14 14:54:00,88.4,72.0,29.87,WSW,244,4.0,-999.0,59,-99.99,,,0.00,763,weatherlink.com 1.10,2013-06-14 18:54:00,
2013-06-14 15:09:00,88.2,72.0,29.87,West,259,4.0,-999.0,59,-99.99,,,0.00,933,weatherlink.com 1.10,2013-06-14 19:09:00,
2013-06-14 15:24:00,88.6,71.0,29.87,WSW,244,5.0,-999.0,56,-99.99,,,0.00,932,weatherlink.com 1.10,2013-06-14 19:24:00,
2013-06-14 15:39:00,89.5,72.0,29.87,NW,307,6.0,-999.0,57,-99.99,,,0.00,875,weatherlink.com 1.10,2013-06-14 19:39:00,
2013-06-14 15:54:00,88.6,74.0,29.88,SW,233,5.0,-999.0,62,-99.99,,,0.00,819,weatherlink.com 1.10,2013-06-14 19:54:00,
2013-06-14 16:09:00,88.6,75.0,29.87,WSW,250,6.0,-999.0,64,-99.99,,,0.00,788,weatherlink.com 1.10,2013-06-14 20:09:00,
2013-06-14 16:24:00,89.0,73.0,29.87,West,269,5.0,-999.0,60,-99.99,,,0.00,731,weatherlink.com 1.10,2013-06-14 20:24:00,
2013-06-14 16:39:00,87.4,73.0,29.86,WSW,252,3.0,-999.0,62,-99.99,,,0.00,499,weatherlink.com 1.10,2013-06-14 20:39:00,
2013-06-14 16:54:00,87.6,73.0,29.86,SW,232,4.0,-999.0,63,-99.99,,,0.00,656,weatherlink.com 1.10,2013-06-14 20:54:00,
2013-06-14 17:09:00,87.4,72.0,29.85,West,267,6.0,-999.0,61,-99.99,,,0.00,585,weatherlink.com 1.10,2013-06-14 21:09:00,
2013-06-14 17:24:00,86.7,72.0,29.85,West,264,3.0,-999.0,62,-99.99,,,0.00,369,weatherlink.com 1.10,2013-06-14 21:24:00,
2013-06-14 17:39:00,86.5,71.0,29.85,West,267,3.0,-999.0,61,-99.99,,,0.00,420,weatherlink.com 1.10,2013-06-14 21:39:00,
2013-06-14 17:54:00,86.3,72.0,29.85,WSW,239,0.0,-999.0,63,-99.99,,,0.00,297,weatherlink.com 1.10,2013-06-14 21:54:00,
2013-06-14 18:09:00,86.1,72.0,29.86,WSW,244,2.0,-999.0,62,-99.99,,,0.00,309,weatherlink.com 1.10,2013-06-14 22:09:00,
2013-06-14 18:24:00,85.7,72.0,29.86,WSW,246,5.0,-999.0,63,-99.99,,,0.00,232,weatherlink.com 1.10,2013-06-14 22:24:00,
2013-06-14 18:39:00,85.7,72.0,29.87,WNW,300,5.0,-999.0,63,-99.99,,,0.00,178,weatherlink.com 1.10,2013-06-14 22:39:00,
2013-06-14 18:54:00,85.7,71.0,29.88,West,275,2.0,-999.0,62,-99.99,,,0.00,171,weatherlink.com 1.10,2013-06-14 22:54:00,
2013-06-14 19:09:00,85.3,72.0,29.86,WNW,282,3.0,-999.0,65,-99.99,,,0.00,163,weatherlink.com 1.10,2013-06-14 23:09:00,
2013-06-14 19:24:00,84.1,72.0,29.88,WSW,244,4.0,-999.0,67,-99.99,,,0.00,113,weatherlink.com 1.10,2013-06-14 23:24:00,
2013-06-14 19:39:00,84.0,73.0,29.87,WSW,254,2.0,-999.0,69,-99.99,,,0.00,123,weatherlink.com 1.10,2013-06-14 23:39:00,
2013-06-14 19:54:00,83.2,73.0,29.88,West,275,2.0,-999.0,72,-99.99,,,0.00,62,weatherlink.com 1.10,2013-06-14 23:54:00,
2013-06-14 20:09:00,82.0,73.0,29.87,West,273,0.0,-999.0,74,-99.99,,,0.00,21,weatherlink.com 1.10,2013-06-15 00:09:00,
2013-06-14 20:24:00,81.2,73.0,29.88,WSW,257,3.0,-999.0,76,-99.99,,,0.00,9,weatherlink.com 1.10,2013-06-15 00:24:00,
2013-06-14 20:39:00,80.7,73.0,29.89,NW,307,3.0,-999.0,78,-99.99,,,0.00,0,weatherlink.com 1.10,2013-06-15 00:39:00,
2013-06-14 20:54:00,79.9,73.0,29.89,West,262,2.0,-999.0,79,-99.99,,,0.00,0,weatherlink.com 1.10,2013-06-15 00:54:00,
2013-06-14 21:09:00,79.6,73.0,29.90,West,262,0.0,-999.0,81,-99.99,,,0.00,0,weatherlink.com 1.10,2013-06-15 01:09:00,
2013-06-14 21:24:00,79.2,73.0,29.92,NW,316,1.0,-999.0,82,-99.99,,,0.00,0,weatherlink.com 1.10,2013-06-15 01:24:00,
2013-06-14 21:39:00,78.8,73.0,29.90,WSW,241,3.0,-999.0,83,-99.99,,,0.00,0,weatherlink.com 1.10,2013-06-15 01:39:00,
2013-06-14 21:54:00,78.6,73.0,29.91,WSW,245,1.0,-999.0,84,-99.99,,,0.00,0,weatherlink.com 1.10,2013-06-15 01:54:00,
2013-06-14 22:09:00,78.5,74.0,29.91,West,264,0.0,-999.0,85,-99.99,,,0.00,0,weatherlink.com 1.10,2013-06-15 02:09:00,
2013-06-14 22:24:00,78.6,73.0,29.91,West,277,0.0,-999.0,84,-99.99,,,0.00,0,weatherlink.com 1.10,2013-06-15 02:24:00,
2013-06-14 22:39:00,78.6,74.0,29.92,West,265,0.0,-999.0,85,-99.99,,,0.00,0,weatherlink.com 1.10,2013-06-15 02:39:00,
2013-06-14 22:54:00,78.3,74.0,29.91,West,267,3.0,-999.0,86,-99.99,,,0.00,0,weatherlink.com 1.10,2013-06-15 02:54:00,
2013-06-14 23:09:00,78.3,74.0,29.91,WSW,238,0.0,-999.0,86,-99.99,,,0.00,0,weatherlink.com 1.10,2013-06-15 03:09:00,
2013-06-14 23:24:00,78.5,74.0,29.92,West,266,0.0,-999.0,87,-99.99,,,0.00,0,weatherlink.com 1.10,2013-06-15 03:24:00,
2013-06-14 23:39:00,78.3,74.0,29.92,WSW,254,1.0,-999.0,87,-99.99,,,0.00,0,weatherlink.com 1.10,2013-06-15 03:39:00,
2013-06-14 23:54:00,77.9,74.0,29.92,West,277,0.0,-999.0,88,-99.99,,,0.00,0,weatherlink.com 1.10,2013-06-15 03:54:00,